YPADYCDU

Guest
Details From YPAD - Adelaide Intl
To YCDU - Ceduna
Flight Number -
Tags Generated
Created
Modified
Stats Distance 295 nm / 546 km
Max Altitude 0 ft / 0 m
Waypoints 3
Social Downloads 1
Likes 0
Share VATSIM

Download

Looking for another format? Having issues loading an existing format? Contact us
Advertisement - Login to hide

Notes

Generated

Route

YPAD CDUEM YCDU

ID Type Via Altitude Latitude Longitude Leg Dist Tot Dist Heading (true) Name
O YPAD APT - 0 ft / 0 m -34.94168˚ 138.54233˚ - 0 nm - -
CDUEM FIX - 0 ft / 0 m -32.13521˚ 133.72077˚ 294 nm 294 nm 304° / 306° -
O YCDU APT - 0 ft / 0 m -32.12938˚ 133.71583˚ 0 nm 294 nm 324° / 324° -

Altitude Profile

Advertisement - Login to hide

Weather


0- 5 10 15 20 25 30 35+ Temperature / ° C

Clouds and Precipitation
Forecast for 2018-05-26 18:00 UTC. Updated 2 hours ago

Ground ~20,000 ft ~40,000 ft Winds

YPAD

Details ICAO YPAD (ADL)
Name Adelaide Intl
Region Australia
Timezone Australia/Adelaide (UTC+9.5)
Stats Elevation 20 ft / 6 m (AMSL)
Location -34.947439° 138.529850°
Runways 2
Magnetic Variation 7.921° E

METAR

YPAD 261900Z 02013KT CAVOK 20/06 Q1017 NOSIG

Decode

TAF

TAF YPAD 261703Z 2618/2724 03012KT CAVOK FM262200 36014G30KT 9999 -RA SCT040 FM270400 02012KT 9999 -RA SCT040

Decode

Departure Runways

ID Width Length Bearing (true) Bearing (mag) Surface Threshold Offset Overrun Length
05 151 ft / 46 m 10,173 ft / 3,101 m 50.14° 42.22° Asphalt 518 ft / 158 m 0 ft / 0 m
12 151 ft / 46 m 5,414 ft / 1,650 m 123.61° 115.69° Asphalt 0 ft / 0 m 0 ft / 0 m
23 151 ft / 46 m 10,173 ft / 3,101 m 230.13° 222.21° Asphalt 0 ft / 0 m 203 ft / 62 m
30 151 ft / 46 m 5,414 ft / 1,650 m 303.60° 295.68° Asphalt 0 ft / 0 m 0 ft / 0 m

YCDU

Details ICAO YCDU (CED)
Name Ceduna
Region Australia
Timezone Australia/Adelaide (UTC+9.5)
Stats Elevation 77 ft / 23 m (AMSL)
Location -32.130596° 133.709774°
Runways 2
Magnetic Variation 5.466° E

METAR

YCDU 261900Z AUTO 35007KT 9999 // OVC097 17/12 Q1013

Decode

TAF

Not found

Destination Runways

ID Width Length Bearing (true) Bearing (mag) Surface Threshold Offset Overrun Length
11 98 ft / 30 m 5,701 ft / 1,738 m 110.90° 105.43° Asphalt 0 ft / 0 m 0 ft / 0 m
17 112 ft / 34 m 3,823 ft / 1,165 m 173.40° 167.93° Unknown 0 ft / 0 m 0 ft / 0 m
29 98 ft / 30 m 5,701 ft / 1,738 m 290.90° 285.43° Asphalt 0 ft / 0 m 0 ft / 0 m
35 112 ft / 34 m 3,823 ft / 1,165 m 353.40° 347.93° Unknown 0 ft / 0 m 0 ft / 0 m

Popular Alternatives